Погода в Мужи

Погода в Мужи : погода сейчас, прогноз погоды и архив. Всё, что Вы хотите узнать о погоде в Мужи!

Хотите узнать прогноз погоды в Мужи? Тогда Вам сюда: Погода в Мужи

Поиск расширенной информации на нашем сайте:

Другие новости

Новости СМИ2

Главная страница сайта

Новости сайта

02.10.2013

Напоминаем, что на нашем новом сайте вы можете получить высокодетализированные прогнозы погоды по пунктам России, СНГ и мира (включающие важные для авиации метеовеличины, такие как направление и скорость ветра, видимость, явления погоды, количество и форма облачности, нижняя и верхняя граница облачности), а также ознакомиться с разнообразными материалами по авиационной метеорологии и подборкой полезных ссылок на эту тему.

Сайт Метеоцентр.Азия посвящён разработке технологий оптимизации авиаметеорологического обслуживания, включая проектирование и перспективное создание нескольких автоматизированных авиаметеорологических систем:
- система выпуска высокодетальных прогностических карт явлений погоды для нижнего воздушного пространства по России и ближнему зарубежью;
- система верификации прогнозов TAF (выпускаемых синоптиками официальных АМСГ РФ и ближнего зарубежья) и AUTOTAF (выпускаемых сайтом Метеоцентр.Азия) - выявление ошибок, онлайн-сопоставление с фактической погодой METAR, автоматическое внесение коррективов в прогнозы при резком отклонении фактической погоды от прогноза, подсчёт оправдываемости прогнозов по элементам и в целом;
- система обработки, анализа и отображения авиаметеорологической информации для применения провайдерами метеорологической информации.

Рекомендуем: Автоматический выключатель трехполюсный купить автоматический трехполюсный выключатель.

Погода в Мужи - сегодня

Время (UTC), дата Ветер
(°,м/с) 
Видим.   Явления Облачность Т
(°С)
Тd
(°С)
f(%) Тe
(°С)
Pmin
(гПа)
dP
(гПа)
Po
(мм)
O2
(г/м3)
Тmin Tmax R s Состояние
почвы
15 26.03.17 180 (Ю) 50000 м    3/0 верхняя 
[Ci fib]
-2.9 -7.6 70 -2  1002.3  -1.9  750  306    +4.2       
18 26.03.17 200 (Ю) 50000 м    3/0 верхняя 
[Ci fib]
-4.6 -9.3 70 -4  999.7  -2.6  748  307           
21 26.03.17 тихо ()   50000 м    8/0 средняя, верхняя 
[As trans|Ci fib]
-7.3 -10 81 -7  996  -3.7  745  309           
00 27.03.17 150 (ЮВ) 5000 м  слаб. снег  10/0 средняя 
[As op]
-4.6 -5.5 93 -4  991.8  -4.2  742  305           
03 27.03.17 150 (ЮВ) 3700 м  слаб. снег  10/0 средняя 
[As op]
-1.3 -1.8 96 -3  988.5  -3.3  740  300  -9    31  неравномерный
сухой снег
100% 
06 27.03.17 160 (Ю) 4{11}  н/о  {снег}  10/10 300 м 
[St]
+0.3 -2.1 84 -2  995.7  -2.4  738  297           
09 27.03.17 190 (Ю) 4100 м  слаб. ливневой снег  10/10 300 м кучево-дожд. 
[Cb cap]
+0.9 -0.5 90 -1  995  -0.7  737  296           
12 27.03.17 210 (ЮЗ) 2{14}  2400 м  слаб. ливневой снег  10/10 300 м кучево-дожд. 
[Cb cap]
+0.2 -0.3 96 -1  986.6  1.3  738  297           
15 27.03.17 210 (ЮЗ) 3200 м  слаб. ливневой снег  10/10 300 м кучево-дожд. 
[Cb cap]
+0.3 -0.2 96 -3  987.4  0.8  739  297    +1.8     
18 27.03.17 200 (Ю) 30000 м  {ливн. осадки}  10/8 600 м средняя 
[Cu Sc|Ac As]
-1.5 -2.9 90 -4  987.9  0.4  739  300           
21 27.03.17 170 (Ю) 50000 м    10/0 средняя 
[Ac As]
-4.2 -5.3 92 -5  989.1  1.2  740  303           
00 28.03.17 200 (Ю) 50000 м    10/10 600 м 
[Sc]
-4.3 -5.4 92 -7  998.7  -0.4  740  303           
03 28.03.17 200 (Ю) 55000 м    10/10 1000 м 
[Sc]
-3.4 -4.6 91 -6  988  -0.4  739  302  -5.3      35  неравномерный
мокрый или
старый снег
100% 
06 28.03.17 200 (Ю) 60000 м    10/6 600 м верхняя 
[Sc|Cc]
+0.1 -4.1 73 -3  987.9  -0.3  739  298           
09 28.03.17 220 (ЮЗ) 65000 м    10/8 1000 м верхняя 
[Sc|Ci fib]
+1.9 -4.2 64 988  0.1  739  296           
12 28.03.17 200 (Ю) н/о    10/10 1000 м 
[Sc]
+2.1 -4.5 62 +1  988  739  296           
15 28.03.17 210 (ЮЗ) 50000 м    10/0 средняя 
[As op]
+1.3 -4.3 66 -1  988.1  0.1  739  297    +2.4       
18 28.03.17 190 (Ю) 16000 м  слаб. снег  10/6 300 м средняя 
[Frnb|As op]
-0.4 -2 89 -2  987.3  -0.8  739  298           
21 28.03.17 180 (Ю) 12000 м  слаб. снег  10/8 300 м средняя 
[Frnb|As op]
-0.8 -2.4 89 -3  986.2  -1.1  738  298           
00 29.03.17 180 (Ю) 50000 м  {снег}  9/0 средняя 
[As trans]
-2.7 -4.6 87 -4  985.8  -0.5  738  301           
03 29.03.17 170 (Ю) н/о    10/8 600 м верхняя 
[Sc|Ci fib]
-4 -5.8 87 -6  985.5  -0.3  737  302  -4.5    0.0  33  неравномерный
мокрый или
старый снег
100% 
06 29.03.17 140 (ЮВ) н/о    8/6 600 м верхняя 
[Cu Sc|Ci fib]
-2.3 -6.9 71 -4  985.1  -0.3  737  300           
09 29.03.17 150 (ЮВ) н/о    10/6 600 м кучево-дожд., средняя 
[Cb cap|Ac As]
-0.6 -5.2 71 -1  985.9  0.8  738  298           
12 29.03.17 180 (Ю) 14000 м  слаб. снег  10/0 средняя 
[As op]
-1.1 -4.7 76 -2  987.6  1.6  739  299           
15 29.03.17 340 (С) 40000 м    10/8 600 м кучево-дожд., средняя 
[Cb cap|Ac As]
-2.8 -5.5 82 -2  989.1  1.5  740  302    -0.2     
Время (UTC), дата Ветер
(°,м/с) 
Видим.   Явления Облачность Т
(°С)
Тd
(°С)
f(%) Тe
(°С)
Pmin
(гПа)
dP
(гПа)
Po
(мм)
O2
(г/м3)
Тmin Tmax R s Состояние
почвы

Для получения пояснительной информации подведите курсор к названию столбца.

ПОГОДА в Мужи - архив

Всё, что Вы хотите узнать о погоде в Мужи - удобно и подробно!

Выберите нужную дату (начиная с 1 января 2015* года) и нажмите кнопку "Найти".
Будут отображены архивные сводки погоды по пункту Мужи, начиная с указанной даты.


Отображать данные в формате CSV (для использования в таблицах Excel)


Внимание! Наш архив погоды предназначен исключительно для личного некоммерческого использования в познавательных целях. Если Вам необходимы официальные справки о состоянии погоды (для производственных, юридических, коммерческих и т.п. целей), обращайтесь в органы Росгидромета.

*Примечание: данная дата относится к архиву по метеостанциям СССР (Россия, СНГ, Балтия).
Архив по метеостанциям Зарубежной Европы и Азии (кроме Китая) хранится 10 дней, по другим регионам земного шара (Китай, Африка, Америка, Австралия, Океания) - 1 день.

Мужи - район местоположения метеостанции


Название, широта, долгота, высота метеостанции:
Мужи 65.4°ш. 64.7°д. 19 м над ур. моря [Российская Федерация]

Дополнительная информация

В oтличие oт бoльшинства пoгoдных сайтoв мы публикуем пoдрoбную метеoинфoрмацию в детальнoм прoфессиoнальнoм фoрмате.

Характеристики температуры и влажнoсти вoздуха измеряются на высoте 2 м в тени вдали oт зданий и деревьев.
Скoрoсть ветра измеряется на высoте 10 м (на урoвне рoста челoвека скoрoсть ветра ниже в 1.5-2 раза). Если метеoстанция нахoдится в гoрoде или в лесу, тo скoрoсть ветра занижена на 2-4 м/с пo сравнению с oткрытым местoм. Скoрoсть ветра над акватoриями крупных рек и oзёр, а также на вершинах хoлмoв на 2-5 м/с выше, чем в oбычных услoвиях.
Атмoсфернoе давление в разных тoчках местнoсти мoжет значительнo oтличаться oт давления на метеoстанции, в зависимoсти oт услoвий рельефа (при пoдъёме на 10 м давление пoнижается примернo на 1 мм рт.ст.).